User: anonymous   Login
Location: Unspecified
(0.0000°N, 0.0000°E)
Time: 21:53:05
(UTC+00:00)
Language:

STARLINK-33926 - Orbit

View from above orbital plane
View from above orbital plane
View from above satellite
View from above satellite

Ground track
Ground track

The orbit is defined by the following mean orbital elements,

1 64147U          26145.40336434 +.00000000 +00000-0 +28669-3 0 00004
2 64147  97.4466 196.7923 0001267 104.8008 255.3360 15.05655781    01
Epoch (UTC): 25 May 2026 09:40:50
Eccentricity: 0.0001267
inclination: 97.4466°
perigee height: 549 km
apogee height: 550 km
right ascension of ascending node: 196.7923°
argument of perigee: 104.8008°
revolutions per day: 15.05655781
mean anomaly at epoch: 255.3360°

The dashed part of the orbit path shows where the satellite is in the earth's shadow,  

DLR